Location: Ste-F�licit�
(48.8999°N, 67.3360°W)
Time: 05:11:50
(UTC-05:00)

DELFI C3 - Pass Details

Date: 29 October 2020
Orbit: 532 x 551 km, 97.4° (Epoch: 28 November)

Event Time Altitude Azimuth Distance (km) Brightness Sun altitude
Exits shadow 19:46:37 13° 359° (N) 1,661 ? -25.7°
Drops below altitude 10° 19:47:04 10° 357° (N) 1,840 ? -25.8°
Sets 19:49:15 0° 352° (N) 2,737 ? -26.1°
